Flag for United Kingdom Weather past 2 weeks in London, England, United Kingdom

Now
55 °F

Overcast.


Feels Like: 54 °F
Forecast: N/A
Wind: 7 mph from Southwest

Location: Northolt

Current Time: Oct 26, 2014 at 9:51:57 AM

Latest Report: Oct 26, 2014 at 8:50 AM


Visibility: N/A

Pressure: 30.15 "Hg

Humidity: 77%

Dew point: 48 °F

Location of LondonLocation

Historic Weather in London — Graph

°F

London temperature yesterday

Maximum temperature yesterday: 61 °F (at 2:50 PM)
Minimum temperature yesterday: 43 °F (at 4:50 AM)
Average temperature yesterday: 53 °F

Past Weeks' High & Low Weather Summary

 TemperatureHumidityPressure
High68 °F (Oct 19, 2:50 PM)100% (Oct 12, 3:50 AM)30.30 "Hg (Oct 12, 3:50 AM)
Low39 °F (Oct 12, 3:50 AM)47% (Oct 21, 1:50 PM)29.42 "Hg (Oct 13, 12:50 PM)
Average56 °F82%29.85 "Hg
* Reported Oct 11 9:50 AM — Oct 26 8:50 AM, London, Weather by CustomWeather, © 2014

Note: Actual official high and low records may vary slightly from our data, if they occured in-between our weather recording intervals... More about our weather records

Advertising

London weather history for previous 24 hours

 ConditionsComfort  
Time TempWeatherWind HumidityBarometerVisibility
8:50 AM
Oct 26
55 °FOvercast.7 mph77%30.15 "HgN/A
7:50 AM55 °FOvercast.8 mph72%30.15 "HgN/A
6:50 AM54 °FPartly sunny.7 mph82%30.12 "HgN/A
5:50 AM54 °FPartly cloudy.8 mph77%30.12 "HgN/A
4:50 AM54 °FPassing clouds.8 mph72%30.15 "HgN/A
3:50 AM54 °FPassing clouds.8 mph72%30.12 "HgN/A
2:50 AM52 °FPassing clouds.8 mph77%30.12 "HgN/A
1:50 AM54 °FPassing clouds.8 mph72%30.15 "HgN/A
1:50 AM54 °FPassing clouds.9 mph72%30.15 "HgN/A
12:50 AM54 °FPassing clouds.8 mph77%30.15 "HgN/A
11:50 PM
Oct 25
55 °FOvercast.8 mph72%30.15 "HgN/A
10:50 PM55 °FOvercast.7 mph72%30.15 "HgN/A
9:50 PM55 °FPassing clouds.7 mph72%30.12 "HgN/A
8:50 PM54 °FPassing clouds.8 mph77%30.12 "HgN/A
7:50 PM54 °FPassing clouds.7 mph77%30.12 "HgN/A
6:50 PM55 °FPassing clouds.8 mph67%30.09 "HgN/A
5:50 PM57 °FPartly sunny.7 mph67%30.09 "HgN/A
4:50 PM59 °FPassing clouds.12 mph59%30.07 "HgN/A
3:50 PM59 °FScattered clouds.10 mph59%30.07 "HgN/A
2:50 PM61 °FScattered clouds.14 mph55%30.07 "HgN/A
1:50 PM59 °FPartly sunny.16 mph59%30.07 "HgN/A
12:50 PM57 °FPartly sunny.12 mph59%30.07 "HgN/A
11:50 AM57 °FPartly sunny.9 mph63%30.07 "HgN/A
10:50 AM54 °FPartly sunny.5 mph82%30.07 "HgN/A
9:50 AM52 °FPartly sunny.3 mph88%30.07 "HgN/A
Weather by CustomWeather, © 2014

See weather overviewHow to use our weather pages